This is the latest recevied weather packets stored in our database for station/object DL9GJ-4. If no packets are shown the sender has not sent any weather packets the latest 10 day(s).
| Time | Temp. | Humidity | Pressure | Rain* | Wind** | Luminosity | Snow |
|---|---|---|---|---|---|---|---|
| 1778079380 | 8.89° C | 53% | 1007 hPa | 0 mm | - | - | - |
| 1778079051 | 8.89° C | 50% | 1006 hPa | 0 mm | - | - | - |
| 1778079017 | 8.89° C | 50% | 1006 hPa | 0 mm | - | - | - |
| 1778078296 | 9.44° C | 47% | 1005 hPa | 0 mm | - | - | - |
| 1778077932 | 10° C | 43% | 1005 hPa | 0 mm | - | - | - |
| 1778077222 | 14.44° C | 35% | 1004 hPa | 0 mm | - | - | - |
| 1778076844 | 14.44° C | 33% | 1004 hPa | 0 mm | - | - | - |
| 1778076120 | 15° C | 29% | 1004 hPa | 0 mm | - | - | - |
| 1778074310 | 14.44° C | 51% | 1004 hPa | 0 mm | - | - | - |
| 1778073228 | 12.22° C | 45% | 1004 hPa | 0 mm | - | - | - |
| 1778072508 | 11.67° C | 41% | 1005 hPa | 0 mm | - | - | - |
| 1778071790 | 11.67° C | 40% | 1005 hPa | 0 mm | - | - | - |
| 1778071429 | 12.22° C | 36% | 1005 hPa | 0 mm | - | - | - |
| 1778071070 | 12.22° C | 35% | 1005 hPa | 0 mm | - | - | - |
| 1778070707 | 12.78° C | 35% | 1005 hPa | 0 mm | - | - | - |
| 1778069255 | 14.44° C | 28% | 1004 hPa | 0 mm | - | - | - |
| 1778068893 | 14.44° C | 30% | 1004 hPa | 0 mm | - | - | - |
| 1778068170 | 15° C | 30% | 1004 hPa | 0 mm | - | - | - |
| 1778067446 | 15.56° C | 29% | 1004 hPa | 0 mm | - | - | - |
| 1778067084 | 15° C | 31% | 1004 hPa | 0 mm | - | - | - |
| 1778066723 | 15° C | 31% | 1004 hPa | 0 mm | - | - | - |
| 1778066365 | 15° C | 32% | 1004 hPa | 0 mm | - | - | - |
| 1778065644 | 15° C | 30% | 1004 hPa | 0 mm | - | - | - |
| 1778065284 | 15° C | 29% | 1004 hPa | 0 mm | - | - | - |
| 1778064920 | 15° C | 30% | 1004 hPa | 0 mm | - | - | - |
* Rain latest hour (hover to see other rain measurements)
** Current wind speed in m/s (hover to see current wind gust speed)